{"data":{"norad_id":39019,"intl_designator":"2012-068A","name":"PLEIADES 1B","alt_names":[],"object_type":"PAYLOAD","status":"ACTIVE","operator":null,"country":"FR","launch_date":"2012-12-02","launch_site_code":"FRGUI","launch_vehicle":null,"mission":null,"orbit_class":"UNKNOWN","rcs_meters":5.438,"size_class":null,"mass_kg":null,"dimensions":null,"purposes":["earth_obs"],"wikipedia_slug":null,"has_3d_model":false,"image_url":null,"decayed_at":null,"tle_current":{"epoch":"2026-09-20T05:31:24.250656Z","epoch_age_seconds":41417,"freshness":"FRESH","line1":"1 39019U 12068A   26263.23014179  .00000073  00000+0  25512-4 0  9993","line2":"2 39019  98.1871 336.9338 0001394 101.2260 258.9096 14.58567037734708","mean_motion":14.58567037,"eccentricity":0.0001394,"inclination_deg":98.1871,"raan_deg":336.9338,"arg_perigee_deg":101.226,"mean_anomaly_deg":258.9096,"bstar":2.5512e-5,"rev_number":73470,"period_min":98.727035746112,"perigee_km":696.81829732308,"apogee_km":698.79106986447,"semimajor_km":7075.9416835938,"source":"CELESTRAK","updated_at":"2026-09-20T09:00:33.893781Z"}}}